TimePDT,TemperatureF,Dew PointF,Humidity,Sea Level PressureIn,VisibilityMPH,Wind Direction,Wind SpeedMPH,Gust SpeedMPH,PrecipitationIn,Events,Conditions,WindDirDegrees,DateUTC
12:15 AM,50.0,50.0,100,29.85,4.0,SSW,19.6,31.1,N/A,,Overcast,200,2013-04-05 07:15:00
12:35 AM,50.0,50.0,100,29.86,2.0,SSW,20.7,31.1,N/A,Rain,Light Rain,200,2013-04-05 07:35:00
12:55 AM,50.0,50.0,100,29.87,3.0,SSW,20.7,-,N/A,,Overcast,200,2013-04-05 07:55:00
1:15 AM,50.0,50.0,100,29.87,2.0,SSW,19.6,26.5,N/A,Rain,Rain,200,2013-04-05 08:15:00
1:35 AM,50.0,50.0,100,29.87,5.0,South,21.9,32.2,N/A,Rain,Light Rain,190,2013-04-05 08:35:00
1:55 AM,50.0,50.0,100,29.88,7.0,South,23.0,29.9,N/A,,Overcast,190,2013-04-05 08:55:00
2:15 AM,50.0,50.0,100,29.88,7.0,SSW,18.4,28.8,N/A,,Overcast,200,2013-04-05 09:15:00
2:35 AM,50.0,50.0,100,29.89,3.0,SSW,21.9,29.9,N/A,Rain,Light Rain,200,2013-04-05 09:35:00
2:55 AM,50.0,50.0,100,29.89,3.0,SSW,19.6,29.9,N/A,Rain,Light Rain,200,2013-04-05 09:55:00
3:15 AM,50.0,50.0,100,29.90,5.0,SSW,17.3,29.9,N/A,,Overcast,200,2013-04-05 10:15:00
3:35 AM,50.0,50.0,100,29.89,5.0,SSW,18.4,27.6,N/A,,Overcast,200,2013-04-05 10:35:00
3:55 AM,50.0,50.0,100,29.90,7.0,SSW,18.4,27.6,N/A,,Overcast,200,2013-04-05 10:55:00
4:15 AM,50.0,50.0,100,29.91,5.0,SSW,17.3,25.3,N/A,,Overcast,200,2013-04-05 11:15:00
4:35 AM,50.0,50.0,100,29.92,5.0,South,18.4,27.6,N/A,,Overcast,190,2013-04-05 11:35:00
4:55 AM,50.0,50.0,100,29.91,5.0,SSW,17.3,25.3,N/A,,Overcast,200,2013-04-05 11:55:00
5:15 AM,50.0,50.0,100,29.91,4.0,SSW,17.3,25.3,N/A,,Overcast,200,2013-04-05 12:15:00
5:35 AM,50.0,50.0,100,29.91,5.0,South,17.3,26.5,N/A,,Overcast,190,2013-04-05 12:35:00
5:55 AM,50.0,50.0,100,29.91,5.0,SSW,16.1,24.2,N/A,,Overcast,200,2013-04-05 12:55:00
6:15 AM,50.0,50.0,100,29.92,4.0,SSW,18.4,24.2,N/A,,Overcast,200,2013-04-05 13:15:00
6:35 AM,50.0,50.0,100,29.92,2.5,South,17.3,27.6,N/A,Rain,Rain,190,2013-04-05 13:35:00
6:55 AM,50.0,50.0,100,29.92,5.0,SSW,19.6,25.3,N/A,,Overcast,200,2013-04-05 13:55:00
7:15 AM,50.0,50.0,100,29.92,7.0,South,18.4,25.3,N/A,,Overcast,190,2013-04-05 14:15:00
7:35 AM,50.0,50.0,100,29.93,10.0,South,18.4,25.3,N/A,,Overcast,190,2013-04-05 14:35:00
7:55 AM,50.0,50.0,100,29.93,5.0,SSW,18.4,-,N/A,,Overcast,200,2013-04-05 14:55:00
8:15 AM,50.0,50.0,100,29.93,7.0,SSW,19.6,26.5,N/A,,Overcast,200,2013-04-05 15:15:00
8:35 AM,50.0,50.0,100,29.94,7.0,SSW,16.1,23.0,N/A,,Overcast,200,2013-04-05 15:35:00
8:55 AM,50.0,50.0,100,29.93,7.0,South,17.3,25.3,N/A,,Overcast,190,2013-04-05 15:55:00
9:15 AM,50.0,50.0,100,29.97,1.8,SSW,18.4,27.6,N/A,Rain,Light Rain,200,2013-04-05 16:15:00
9:35 AM,50.0,50.0,100,29.97,3.0,SSW,19.6,27.6,N/A,,Overcast,200,2013-04-05 16:35:00
9:55 AM,50.0,50.0,100,30.03,5.0,South,20.7,27.6,N/A,,Overcast,190,2013-04-05 16:55:00
10:15 AM,51.8,50.0,94,30.03,7.0,SSW,20.7,26.5,N/A,,Overcast,200,2013-04-05 17:15:00
10:35 AM,50.0,50.0,100,29.98,7.0,South,18.4,29.9,N/A,,Overcast,190,2013-04-05 17:35:00
10:55 AM,51.8,50.0,94,30.04,7.0,SSW,19.6,26.5,N/A,,Overcast,200,2013-04-05 17:55:00
11:15 AM,51.8,50.0,94,30.01,7.0,South,19.6,32.2,N/A,,Overcast,190,2013-04-05 18:15:00
11:35 AM,50.0,50.0,100,29.97,1.2,SSW,21.9,27.6,0.01,Rain,Light Rain,200,2013-04-05 18:35:00
11:55 AM,50.0,50.0,100,29.98,3.0,South,16.1,23.0,0.01,,Overcast,190,2013-04-05 18:55:00
12:15 PM,51.8,50.0,94,30.07,7.0,South,21.9,33.4,N/A,,Overcast,190,2013-04-05 19:15:00
12:35 PM,51.8,50.0,94,30.01,7.0,South,24.2,31.1,N/A,,Overcast,190,2013-04-05 19:35:00
12:55 PM,51.8,50.0,94,29.96,2.5,SSW,24.2,34.5,N/A,,Overcast,200,2013-04-05 19:55:00
1:15 PM,51.8,50.0,94,30.00,5.0,South,23.0,29.9,N/A,Rain,Light Rain,190,2013-04-05 20:15:00
1:35 PM,51.8,50.0,94,30.00,5.0,South,21.9,31.1,N/A,Rain,Light Rain,190,2013-04-05 20:35:00
1:55 PM,50.0,50.0,100,30.00,4.0,SSW,23.0,31.1,0.02,Rain,Light Rain,200,2013-04-05 20:55:00
2:15 PM,50.0,50.0,100,30.00,3.0,South,26.5,35.7,0.02,Rain,Rain,190,2013-04-05 21:15:00
2:35 PM,50.0,50.0,100,30.00,3.0,South,21.9,31.1,0.04,Rain,Light Rain,190,2013-04-05 21:35:00
2:55 PM,50.0,50.0,100,30.00,3.0,SSW,21.9,33.4,0.06,Rain,Light Rain,200,2013-04-05 21:55:00
3:15 PM,50.0,50.0,100,29.99,2.0,SSW,20.7,28.8,0.04,Rain,Rain,200,2013-04-05 22:15:00
3:35 PM,50.0,50.0,100,29.98,2.0,SSW,17.3,25.3,0.08,Rain,Rain,200,2013-04-05 22:35:00
3:55 PM,50.0,50.0,100,29.98,3.0,South,21.9,31.1,0.12,Rain,Light Rain,190,2013-04-05 22:55:00
4:15 PM,50.0,50.0,100,29.98,5.0,South,23.0,32.2,0.01,Rain,Light Rain,190,2013-04-05 23:15:00
4:35 PM,50.0,50.0,100,29.97,4.0,South,20.7,35.7,0.01,Rain,Light Rain,180,2013-04-05 23:35:00
4:55 PM,50.0,50.0,100,29.96,5.0,South,20.7,29.9,0.02,Rain,Rain,190,2013-04-05 23:55:00
5:15 PM,50.0,50.0,100,29.96,5.0,South,23.0,33.4,N/A,,Drizzle,190,2013-04-06 00:15:00
5:35 PM,50.0,50.0,100,29.94,5.0,South,18.4,29.9,N/A,,Drizzle,180,2013-04-06 00:35:00
5:55 PM,50.0,50.0,100,29.94,10.0,South,15.0,20.7,N/A,,Drizzle,180,2013-04-06 00:55:00
6:15 PM,51.8,50.0,94,29.93,10.0,South,10.4,16.1,N/A,,Light Drizzle,170,2013-04-06 01:15:00
6:35 PM,51.8,50.0,94,29.93,10.0,South,16.1,21.9,N/A,,Drizzle,190,2013-04-06 01:35:00
6:55 PM,51.8,50.0,94,29.91,7.0,South,18.4,26.5,N/A,,Drizzle,190,2013-04-06 01:55:00
7:15 PM,51.8,50.0,94,29.90,4.0,South,16.1,23.0,0.01,Rain,Light Rain,190,2013-04-06 02:15:00
7:35 PM,51.8,50.0,94,29.89,7.0,South,29.9,39.1,0.01,Rain,Light Rain,190,2013-04-06 02:35:00
7:55 PM,51.8,50.0,94,29.88,5.0,South,26.5,36.8,0.02,Rain,Light Rain,180,2013-04-06 02:55:00
8:15 PM,51.8,50.0,94,29.87,5.0,South,27.6,40.3,0.01,Rain,Light Rain,190,2013-04-06 03:15:00
8:35 PM,51.8,50.0,94,29.87,3.0,South,25.3,39.1,0.02,Rain,Rain,190,2013-04-06 03:35:00
8:55 PM,51.8,50.0,94,29.86,7.0,South,26.5,39.1,0.03,Rain,Light Rain,190,2013-04-06 03:55:00
9:15 PM,51.8,50.0,94,29.86,5.0,South,25.3,36.8,N/A,Rain,Rain,180,2013-04-06 04:15:00
9:35 PM,51.8,50.0,94,29.87,4.0,South,28.8,40.3,0.01,Rain,Light Rain,190,2013-04-06 04:35:00
9:55 PM,51.8,50.0,94,29.85,4.0,SSW,34.5,44.9,0.03,Rain,Rain,200,2013-04-06 04:55:00
10:15 PM,50.0,50.0,100,29.84,2.5,South,34.5,43.7,0.02,Rain,Rain,190,2013-04-06 05:15:00
10:35 PM,50.0,50.0,100,29.84,3.0,SSW,33.4,47.2,0.03,Rain,Light Rain,200,2013-04-06 05:35:00
10:55 PM,50.0,50.0,100,29.85,3.0,SW,28.8,38.0,0.03,Rain,Light Rain,220,2013-04-06 05:55:00
11:15 PM,50.0,50.0,100,29.85,4.0,SSW,27.6,40.3,N/A,,Drizzle,200,2013-04-06 06:15:00
11:35 PM,50.0,50.0,100,29.85,4.0,SSW,27.6,35.7,N/A,,Overcast,200,2013-04-06 06:35:00
11:55 PM,50.0,50.0,100,29.85,4.0,SSW,24.2,32.2,N/A,Rain,Light Rain,200,2013-04-06 06:55:00